Погода в Косте

Россия / Республика Северная Осетия — Алания     43°11′39″N   44°27′23″E
В апреле 2022 года жителям России запретили посещать сайт meteo.paraplan.net по решению Генеральной прокуратуры. Аудитория сайта уменьшилась в 10 раз. Владельцы сайта не видят смысла в поддержке погодного сервера в таких условиях. Сайт будет закрыт в октябре.
темп.,
°C
ветер,
м/с
пор.,
м/с
влажн.,
%
обл.,
%
осадки,
мм/ч
давл.,
гПа
погр.,
м
29 сентября, чт
чт2900:00+15ююз12555 0.0 101111
03:00+14ююв115087 0.0 101011
06:00+14зсз115335 0.0 101111
09:00+20зсз344411 0.0 1014474
12:00+23с324411 0.0 10131425
15:00+24св22406 0.0 10121826
18:00+19св335717 0.0 101441
21:00+18в016548 0.3 101611
30 сентября, пт
пт3000:00+15зюз11750 0.0 101711
03:00+14ююв11780 0.0 101711
06:00+14в00780 0.0 101811
09:00+20зсз00570 0.0 1018358
12:00+25св23430 0.0 10171363
15:00+26всв32391 0.0 10161801
18:00+21всв33504 0.0 101826
21:00+18в22570 0.0 101923
1 октября, сб
сб100:00+17ююв11690 0.0 101911
03:00+15юз11733 0.0 102011
06:00+15ююз11700 0.0 102111
09:00+21зюз11462 0.0 1022297
12:00+26сз22371 0.0 10201346
15:00+27с33341 0.0 10192008
18:00+21св33420 0.0 102034
21:00+19в22410 0.0 102012
2 октября, вс
вс200:00+17юв11550 0.0 101911
03:00+16ююв11664 0.0 101811
06:00+15вюв11665 0.0 101811
09:00+22в2243100 0.0 1016355
12:00+26всв543169 0.0 10131308
15:00+27в6529100 0.0 10101526
18:00+21всв3341100 0.0 101032
21:00+18в225690 0.0 100828
3 октября, пн
пн300:00+16вюв1155100 0.0 100611
03:00+16в115399 0.0 100411
06:00+15вюв1159100 0.0 100511
09:00+22с1140100 0.0 1005268
12:00+26с2232100 0.0 1004854
15:00+26сз3336100 0.0 10061027
18:00+20ссз2254100 0.0 100917
21:00+18з2263100 0.0 101020